Tracking 23731 objects as of 27-Sep-2021
HD Live streaming from Space Station
objects crossing your sky now

STARLINK-2388

Track STARLINK-2388 now!
10-day predictions
STARLINK-2388 is classified as:


NORAD ID: 47807
Int'l Code: 2021-018W
Perigee: 554.1 km
Apogee: 554.7 km
Inclination: 53.0 °
Period: 95.6 minutes
Semi major axis: 6925 km
RCS: Unknown
Launch date: March 11, 2021
Source: United States (US)
Launch site: AIR FORCE EASTERN TEST RANGE (AFETR)
aabbcc
Your satellite tracking list
Your tracking list is empty




NASA's NSSDC Master Catalog

Two Line Element Set (TLE):
1 47807U 21018W   21269.63927574 -.00000357  00000-0 -50821-5 0  9999
2 47807  53.0422 316.8043 0000425 132.3493 227.7531 15.06389217 32076
Source of the keplerian elements: AFSPC